This is the latest recevied weather packets stored in our database for station/object KD4EED. If no packets are shown the sender has not sent any weather packets the latest 10 day(s).
| Time | Temp. | Humidity | Pressure | Rain* | Wind** | Luminosity | Snow |
|---|---|---|---|---|---|---|---|
| 1778002799 | 17.78° C | 62% | 1012.4 hPa | - | - | 551 W/m² | - |
| 1778002496 | 17.78° C | 62% | 1012.3 hPa | - | - | 224 W/m² | - |
| 1778002193 | 17.78° C | 62% | 1012.2 hPa | - | - | 208 W/m² | - |
| 1778001892 | 17.78° C | 62% | 1012 hPa | - | - | 222 W/m² | - |
| 1778001590 | 18.33° C | 60% | 1012 hPa | - | - | 248 W/m² | - |
| 1778001287 | 18.33° C | 60% | 1012.2 hPa | - | - | 245 W/m² | - |
| 1778000984 | 18.33° C | 59% | 1012.1 hPa | - | - | 251 W/m² | - |
| 1778000681 | 18.89° C | 58% | 1012.2 hPa | - | - | 234 W/m² | - |
| 1778000376 | 18.89° C | 59% | 1012.1 hPa | - | - | 276 W/m² | - |
| 1778000072 | 18.33° C | 59% | 1011.9 hPa | - | - | 763 W/m² | - |
| 1777999767 | 18.33° C | 60% | 1011.9 hPa | - | - | 303 W/m² | - |
| 1777999464 | 18.33° C | 62% | 1011.8 hPa | - | - | 254 W/m² | - |
| 1777999162 | 17.78° C | 62% | 1011.8 hPa | - | - | 592 W/m² | - |
| 1777998861 | 17.22° C | 63% | 1011.8 hPa | - | - | 485 W/m² | - |
| 1777998560 | 17.22° C | 63% | 1011.8 hPa | - | - | 447 W/m² | - |
| 1777998255 | 16.67° C | 63% | 1011.8 hPa | - | - | 162 W/m² | - |
| 1777997952 | 16.67° C | 63% | 1011.6 hPa | - | - | 185 W/m² | - |
| 1777997649 | 16.67° C | 64% | 1011.6 hPa | - | - | 190 W/m² | - |
| 1777997346 | 16.67° C | 65% | 1011.4 hPa | - | - | 161 W/m² | - |
| 1777997044 | 16.11° C | 66% | 1011.5 hPa | - | - | 144 W/m² | - |
| 1777996741 | 16.11° C | 67% | 1011.4 hPa | - | - | 114 W/m² | - |
| 1777996436 | 15.56° C | 68% | 1011.6 hPa | - | - | 101 W/m² | - |
| 1777996133 | 15.56° C | 69% | 1011.6 hPa | - | - | 65 W/m² | - |
| 1777995830 | 15.56° C | 71% | 1011.4 hPa | - | - | 54 W/m² | - |
| 1777995526 | 15° C | 70% | 1011.5 hPa | - | - | 51 W/m² | - |
* Rain since midnight (hover to see other rain measurements)
** Current wind speed in m/s (hover to see current wind gust speed)